SB KEPS @ AMSAT $ORB25287.1 2Line Orbital Elements 25287.AMSAT QST de W1STR AMSAT Orbital Elements for Amateur Satellites in TLE Format From Orbital Analysis Office New England Sci-Tech STEM Education Center Natick MA October 14, 2025 To all radio amateurs These element sets describe the orbits of various satellites in use by the amateur radio community. For details see: www.amsat.org/keplerian-elements-formats/ A daily update of element sets is available at: www.amsat.org/tle/daily-bulletin.txt or without bulletin text: www.amsat.org/tle/dailytle.txt AO-07 1 07530U 74089B 25286.95927036 -.00000034 00000-0 76607-4 0 9995 2 07530 101.9987 292.5897 0011933 240.7530 148.4494 12.53692402329666 UO-11 1 14781U 84021B 25286.89021988 .00002111 00000-0 22553-3 0 9999 2 14781 97.7713 250.8924 0006060 282.6889 77.3651 14.89833755220446 AO-27 1 22825U 93061C 25286.93067722 .00000173 00000-0 82902-4 0 9993 2 22825 98.7229 349.0318 0009514 101.9252 258.2998 14.30844416671782 FO-29 1 24278U 96046B 25286.59067421 -.00000021 00000-0 14680-4 0 9992 2 24278 98.5531 163.7821 0350295 16.2117 344.9900 13.53256628439811 NOAA-15 1 25338U 98030A 25286.95150467 .00000213 00000-0 10509-3 0 9995 2 25338 98.5288 309.0075 0010070 355.8801 4.2295 14.27034884426178 GO-32 1 25397U 98043D 25286.92728185 .00000138 00000-0 79848-4 0 9997 2 25397 98.9864 268.7737 0001220 156.1402 203.9832 14.24351681416278 ISS 1 25544U 98067A 25286.81616349 .00012055 00000-0 21953-3 0 9997 2 25544 51.6332 79.1379 0000799 266.7872 93.3025 15.49912173533567 NO-44 1 26931U 01043C 25286.66384124 .00000195 00000-0 10403-3 0 9992 2 26931 67.0501 161.8320 0007080 273.5365 86.4927 14.31804257255158 SO-50 1 27607U 02058C 25286.41995080 .00002258 00000-0 29057-3 0 9999 2 27607 64.5528 171.9799 0068262 307.9171 51.5776 14.82075350227871 CO-55 1 27844U 03031E 25286.87110090 .00000488 00000-0 23105-3 0 9995 2 27844 98.6789 293.5398 0009658 174.2877 185.8414 14.24104400156617 CO-57 1 27848U 03031J 25286.73847048 .00000384 00000-0 18848-3 0 9997 2 27848 98.6817 293.3180 0009189 192.5104 167.5848 14.23423396156317 RS-22 1 27939U 03042A 25286.94347274 .00001889 00000-0 30413-3 0 9992 2 27939 98.3379 99.5653 0010882 335.0071 179.5621 14.72712754179295 CO-58 1 28895U 05043F 25286.67951205 .00002815 00000-0 46116-3 0 9999 2 28895 98.2678 72.7755 0013316 267.1236 92.8447 14.71525345 65482 CO-65 1 32785U 08021C 25286.92636217 .00008594 00000-0 59373-3 0 9991 2 32785 97.8020 259.2397 0010992 134.9625 225.2494 15.05951745948080 CO-66 1 32791U 08021J 25286.95047865 .00019720 00000-0 85398-3 0 9995 2 32791 97.7411 270.1824 0006517 91.2028 268.9954 15.22431110949698 RS-30 1 32953U 08025A 25286.91493198 .00000030 00000-0 13999-3 0 9991 2 32953 82.5027 148.6346 0019643 127.4098 232.8774 12.43169387789094 NOAA-19 1 33591U 09005A 25286.91944627 .00000069 00000-0 60863-4 0 9992 2 33591 98.9843 352.2556 0013834 11.3245 348.8236 14.13417641859690 SRMSAT 1 37841U 11058D 25286.85303660 .00000481 00000-0 11770-3 0 9994 2 37841 19.9711 110.3894 0011771 14.0368 14.3762 14.11480168722972 ZACUBE-1 1 39417U 13066B 25286.56512891 .00010181 00000-0 84918-3 0 9994 2 39417 97.7954 243.0978 0042447 354.5715 5.5041 14.98075892643765 Delfi-N3xt 1 39428U 13066N 25286.48243062 .00013064 00000-0 12652-2 0 9996 2 39428 97.8284 202.8190 0079951 306.5563 52.8314 14.90447238637817 GOMX-1 1 39430U 13066Q 25286.86788000 .00003005 00000-0 46498-3 0 9997 2 39430 97.6673 137.7355 0131877 147.4703 213.4717 14.68203214633753 LO-74 1 39440U 13066AA 25286.96347553 .00005596 00000-0 55065-3 0 9990 2 39440 97.8602 230.7897 0062200 121.7030 239.0272 14.91037467640269 AO-73 1 39444U 13066AE 25286.82642805 .00013382 00000-0 94401-3 0 9996 2 39444 97.7984 249.4647 0038505 323.5000 36.3601 15.04486611642557 DTUSAT-2 1 40030U 14033W 25286.87128841 .00011417 00000-0 70014-3 0 9999 2 40030 98.0709 265.0519 0008884 9.4520 350.6874 15.10291154615440 EO-80 1 40032U 14033Y 25286.48721549 .00012230 00000-0 74837-3 0 9993 2 40032 98.0586 264.1267 0006311 304.5744 55.4888 15.10368173615367 LILACSAT-2 1 40908U 15049K 25286.96252235 .00018288 00000-0 42576-3 0 9991 2 40908 97.4999 310.5879 0010362 71.4265 288.8107 15.42289396557684 IO-86 1 40931U 15052B 25151.18580175 .00001241 00000-0 78118-4 0 9996 2 40931 6.0006 24.0987 0012733 338.8432 21.1169 14.78805930523159 Horyu-4 1 41340U 16012D 25286.55970445 .00047759 00000-0 10025-2 0 9996 2 41340 30.9967 1.0629 0003308 301.8283 58.2042 15.44100716532229 Lapan A3 1 41603U 16040E 25286.96458700 .00004920 00000-0 16713-3 0 9993 2 41603 97.1434 286.7235 0011087 167.0698 193.0830 15.30869431517110 CAS-2T 1 41847U 16066G 25286.96373844 .00002733 00000-0 39299-3 0 9990 2 41847 98.4093 0.2871 0345283 155.8649 205.9165 14.43879919469259 CAS-4B 1 42759U 17034B 25286.97241530 .03437790 89859-5 10544-2 0 9999 2 42759 42.9888 273.3261 0008257 129.3938 230.7682 16.25684504462550 CAS-4A 1 42761U 17034D 25281.34159269 .04203186 90411-5 12507-2 0 9993 2 42761 42.9927 303.5081 0008135 81.2710 278.9099 16.26032227461692 TechnoSat 1 42829U 17042E 25286.87947796 .00006483 00000-0 48839-3 0 9995 2 42829 97.4001 89.7066 0018134 214.1121 145.8940 15.02684740449682 AO-91 1 43017U 17073E 25286.12608094 .00015293 00000-0 74052-3 0 9997 2 43017 97.5017 153.7615 0167551 98.0329 263.9948 15.07043496428105 S-Net D 1 43186U 18014G 25286.99918432 .00008082 00000-0 45728-3 0 9991 2 43186 97.5480 188.6191 0009920 139.2003 220.9972 15.13279425421488 S-Net B 1 43187U 18014H 25286.27893291 .00010201 00000-0 57651-3 0 9992 2 43187 97.5480 187.8835 0010578 138.3470 221.8569 15.13244538421371 S-Net A 1 43188U 18014J 25286.99912351 .00008079 00000-0 45696-3 0 9997 2 43188 97.5494 188.7643 0010601 136.3727 223.8344 15.13284815421481 S-Net C 1 43189U 18014K 25286.67842486 .00009040 00000-0 51117-3 0 9998 2 43189 97.5499 188.4826 0012270 132.2567 227.9707 15.13243869419982 Ten-Koh 1 43677U 18084G 25286.93526454 .00003517 00000-0 27860-3 0 9991 2 43677 98.0733 104.1983 0008669 194.7665 165.3306 15.01254647379190 PO-101 1 43678U 18084H 25286.98425463 .00003949 00000-0 33119-3 0 9998 2 43678 98.1073 108.0408 0007337 211.5788 148.4994 14.98985993379318 QO-100 1 43700U 18090A 25286.92070554 .00000131 00000-0 00000-0 0 9992 2 43700 0.0158 252.1263 0002049 353.3272 134.5424 1.00271300 25207 MinXSS-2 1 43758U 18099A 25286.87905798 .00028394 00000-0 95879-3 0 9997 2 43758 97.4877 353.5897 0011471 74.2399 286.0106 15.30575393376256 AO-95 1 43770U 18099N 25286.13078909 .00017326 00000-0 80797-3 0 9991 2 43770 97.4769 342.9240 0011295 131.0119 229.2095 15.19873867375608 SNUSat 2 1 43782U 18099AA 25286.91693228 .00011515 00000-0 58889-3 0 9998 2 43782 97.4449 339.3847 0012959 78.5905 281.6783 15.16733899375631 SnugLite 1 43784U 18099AC 25286.92256398 .00014778 00000-0 68307-3 0 9994 2 43784 97.4262 339.2464 0004764 83.6316 276.5462 15.20262089375818 ITASat 1 1 43786U 18099AE 25286.41164207 .00012202 00000-0 65919-3 0 9993 2 43786 97.4424 338.0077 0015190 127.8119 232.4491 15.14751875375490 EAGLET 1 1 43790U 18099AJ 25286.89267267 .00007169 00000-0 44095-3 0 9998 2 43790 97.4617 337.9742 0013158 113.5712 246.6902 15.10258726375126 ESEO 1 43792U 18099AL 25286.57642353 .00002600 00000-0 19643-3 0 9994 2 43792 97.4346 329.1989 0014905 94.0770 266.2160 15.03141335374741 JO-97 1 43803U 18099AX 25286.92840519 .00019070 00000-0 78275-3 0 9995 2 43803 97.4513 345.0275 0008086 69.2038 291.0064 15.24237884375994 Suomi 100 1 43804U 18099AY 25286.90221644 .00016296 00000-0 73121-3 0 9998 2 43804 97.4578 343.8937 0012906 71.2779 288.9856 15.21196617375885 ISAT 1 43879U 18111D 25286.52449439 .00042145 00000-0 11907-2 0 9992 2 43879 97.5868 204.1006 0010916 105.2288 255.0163 15.36173501372985 UWE-4 1 43880U 18111E 25286.88532886 .00026733 00000-0 90325-3 0 9999 2 43880 97.5813 201.9482 0013290 117.6761 242.5830 15.30547603372918 Sparrow 1 43881U 18111F 25286.32588931 .00051975 00000-0 13886-2 0 9993 2 43881 97.6042 207.3164 0008373 128.4299 231.7698 15.37885249373060 Prox-1 1 44339U 19036A 25286.73158947 .00016882 00000-0 19960-2 0 9991 2 44339 23.9971 311.5147 0007365 79.3514 280.7813 14.82971305336740 Taurus 1 1 44530U 19059C 25286.94416561 .00010515 00000-0 18517-2 0 9995 2 44530 98.6207 72.5822 0008748 3.6459 356.4806 14.67734826322467 Duchifat 3 1 44854U 19089C 25286.95153748 .00146185 00000-0 14244-2 0 9999 2 44854 36.9352 263.7601 0008730 223.9519 136.0550 15.64805151322675 TO-108 1 44881U 19093C 25286.97338956 .00001483 00000-0 17601-3 0 9994 2 44881 97.7820 359.9298 0013907 170.8767 189.2704 14.85894699314845 FloripaSat 1 1 44885U 19093G 25286.96681491 .00008839 00000-0 71282-3 0 9999 2 44885 97.8087 14.9167 0010738 153.8631 206.3136 15.00084482315680 RS-44 1 44909U 19096E 25286.89383186 .00000015 00000-0 16298-4 0 9996 2 44909 82.5202 143.3812 0217612 0.5160 359.6126 12.79744499270849 UPMSat 2 1 46276U 20061E 25284.11510829 .12115553 24945-5 13983-3 0 9991 2 46276 97.2106 5.1352 0012001 257.8540 102.1421 16.49625583285008 SALSAT 1 46495U 20068K 25286.90981998 .00011989 00000-0 48455-3 0 9997 2 46495 97.8751 271.0360 0013132 84.8924 275.3811 15.24831596277761 CSS (TIANHE-1) 1 48274U 21035A 25286.72226516 .00044523 00000-0 50233-3 0 9994 2 48274 41.4664 21.4371 0003214 239.6807 120.3714 15.61699014254657 TUBIN 1 48900U 21059X 25286.16738369 .00137706 00000-0 85464-3 0 9998 2 48900 97.6748 106.8798 0002004 132.2420 227.9015 15.76612366239703 LEDSAT 1 49069U 21073D 25286.23754732 .03113040 24107-5 14793-2 0 9994 2 49069 97.3545 15.5168 0009728 282.9196 77.1007 16.21364739231204 CUTE 1 49263U 21088D 25286.90586522 .00044089 00000-0 68911-3 0 9996 2 49263 97.4394 7.2961 0007010 127.7570 232.4319 15.53638931223997 TeikyoSat 4 1 49396U 21102B 25286.83368345 .00003359 00000-0 22038-3 0 9998 2 49396 97.3992 320.6693 0013911 64.3962 295.8703 15.08237867215577 Z-Sat 1 49399U 21102E 25286.91120570 .00006724 00000-0 35589-3 0 9990 2 49399 97.3677 324.6575 0018357 31.0394 329.1919 15.15607446216104 KOSEN 1 1 49402U 21102H 25286.84495465 .00009931 00000-0 43358-3 0 9991 2 49402 97.3570 329.0089 0015040 3.6436 356.4907 15.22225558216487 HO-113 1 50466U 21131B 25286.93691240 .00000881 00000-0 28799-3 0 9991 2 50466 98.5073 15.6601 0005241 113.9016 246.2722 14.40987974199644 SNUGLITE 2 1 52899U 22065F 25286.91859848 .00002001 00000-0 39443-3 0 9992 2 52899 98.1872 67.8199 0008649 79.5172 280.7005 14.63580774174962 UmKA 1 (RS40S) 1 57172U 23091G 25286.93770528 .00008071 00000-0 41109-3 0 9995 2 57172 97.5432 341.6820 0012343 254.7609 105.2260 15.16993129126623 CubeBel-2 (EU11S) 1 57175U 23091K 25286.93100787 .00014182 00000-0 62291-3 0 9997 2 57175 97.5429 343.6702 0009998 259.1585 100.8526 15.21991585126757 ENSO 1 58470U 23185J 25286.99676604 .00319469 00000-0 14305-2 0 9990 2 58470 97.3538 7.7888 0004942 287.3119 72.7610 15.83346668104805 SONATE-2 1 59112U 24043Q 25286.92260964 .00030289 00000-0 73484-3 0 9993 2 59112 97.5289 61.1553 0009932 25.0966 335.0761 15.40945672 89759 MO-122 1 60209U 24125G 25286.89760908 .00031696 00000-0 74963-3 0 9998 2 60209 97.2621 137.4117 0017864 46.2743 313.9980 15.41585583 71378 GRBBeta 1 60237U 24128C 25286.92807513 .00005802 00000-0 41905-3 0 9990 2 60237 61.9926 358.6568 0056933 83.9751 276.7824 15.03925139 69192 Curium One 1 60242U 24128H 25286.92337046 .00010149 00000-0 65679-3 0 9999 2 60242 61.9821 354.8517 0056623 80.4287 280.3198 15.07371461 69266 ROBUSTA-3A 1 60243U 24128J 25286.90269654 .00010226 00000-0 67237-3 0 9995 2 60243 61.9895 356.2087 0056501 77.9279 282.8138 15.06788092 69243 CatSat 1 60246U 24125J 25286.15706231 .00041332 00000-0 11755-2 0 9994 2 60246 97.2436 134.3975 0038238 8.6154 351.5738 15.35281034 69213 HYPERVIEW-1G (RS66S) 1 61772U 24199AP 25286.95365921 .00038729 00000-0 90457-3 0 9998 2 61772 97.3301 155.8852 0014058 96.0738 264.2112 15.41986744 96386 AO-123 1 61781U 24199AY 25286.93872244 .00010167 00000-0 34748-3 0 9994 2 61781 97.3329 153.0920 0017010 106.8371 253.4737 15.30334185 96192 ZIMSAT 2 1 61783U 24199BA 25286.96717303 .00095448 00000-0 14557-2 0 9993 2 61783 97.3233 157.9090 0012905 89.2552 271.0180 15.54041196 99679 HADES-R (SO-124) 1 62690U 25009CK 25286.90105880 .00089222 00000-0 20672-2 0 9995 2 62690 97.3973 8.0402 0001532 329.8139 30.3020 15.42097180 41519 HYDRA-T 1 62692U 25009CM 25286.91959757 .00092383 00000-0 20950-2 0 9999 2 62692 97.3971 8.1678 0001635 312.2660 47.8448 15.42728852 41529 JINJUSat 1B 1 63210U 25052A 25286.95698030 .00017572 00000-0 72647-3 0 9990 2 63210 97.4225 179.5982 0002029 205.1275 154.9864 15.24039964 32475 NUSHSAT 1 1 63211U 25052B 25286.65718220 .00023129 00000-0 93668-3 0 9993 2 63211 97.4211 179.3583 0001677 217.1330 142.9792 15.24677596 32431 TEVEL2-4 1 63213U 25052D 25286.96373506 .00019470 00000-0 80048-3 0 9995 2 63213 97.4131 179.3300 0000535 250.0368 110.0812 15.24206209 32472 TEVEL2-5 1 63214U 25052E 25286.96686030 .00019312 00000-0 79517-3 0 9999 2 63214 97.4131 179.3266 0000536 252.5232 107.5947 15.24156449 32472 TEVEL2-6 1 63215U 25052F 25286.97234341 .00020593 00000-0 84860-3 0 9995 2 63215 97.4132 179.3229 0000502 257.3343 102.7838 15.24117374 32472 TEVEL2-1 1 63217U 25052H 25286.93766648 .00018987 00000-0 78936-3 0 9994 2 63217 97.4105 179.1473 0001060 311.4845 48.6301 15.23835541 32466 TEVEL2-3 1 63218U 25052J 25286.93752693 .00019122 00000-0 79462-3 0 9997 2 63218 97.4107 179.1501 0001122 312.9967 47.1176 15.23848456 32464 TEVEL2-2 1 63219U 25052K 25286.93842979 .00018706 00000-0 77779-3 0 9991 2 63219 97.4105 179.1480 0001095 312.0820 48.0324 15.23833522 32460 TEVEL2-9 1 63237U 25052AD 25286.97712612 .00020006 00000-0 86493-3 0 9994 2 63237 97.4168 178.9706 0005479 306.0817 53.9912 15.22483468 32441 TEVEL2-7 1 63238U 25052AE 25286.98597694 .00019450 00000-0 84369-3 0 9998 2 63238 97.4172 178.9639 0005560 305.5410 54.5307 15.22375845 32440 TEVEL2-8 1 63239U 25052AF 25286.20176662 .00023200 00000-0 10071-2 0 9998 2 63239 97.4169 178.1773 0005651 309.3046 50.7689 15.22314629 32327 HYDRA-W 1 63490U 25052BL 25285.93662568 .00070828 00000-0 22684-2 0 9992 2 63490 97.4105 179.2897 0006352 303.2555 56.8077 15.32094284 32389 HADES-ICM (SO-125) 1 63492U 25052BN 25285.80884399 .00063796 00000-0 21138-2 0 9997 2 63492 97.4113 179.0200 0007028 308.1170 51.9437 15.31028346 32352 /EX